Regional Weather Roundup
Issued by NWS

Home | Current Version | Previous Version | Text Only | Print | Product List | Glossary On
Versions: 1 2 3 4 5 6 7 8 9 10 11 12 13 14 15 16 17 18 19 20 21 22 23 24 25 26 27 28 29 30 31 32 33 34 35 36 37 38 39 40 41 42 43 44 45 46 47 48 49 50
000
ASUS43 KDTX 032101
RWRMI
MICHIGAN HOURLY REGIONAL WEATHER ROUNDUP
NATIONAL WEATHER SERVICE DETROIT/PONTIAC MI
500 PM EDT TUE MAY 03 2016

NOTE: "FAIR" INDICATES FEW OR NO CLOUDS BELOW 12,000 FEET WITH NO
SIGNIFICANT WEATHER AND/OR OBSTRUCTION TO VISIBILITY.

MIZ047>049-052>055-059>063-066>070-074>076-081>083-032200-
SOUTHEAST LOWER MICHIGAN

CITY           SKY/WX    TMP DP  RH WIND       PRES   REMARKS
ADRIAN         MOSUNNY   63  35  35 W5        29.82F
ALMA           CLOUDY    65  33  30 W15G22    29.77F
ANN ARBOR      MOSUNNY   61  35  37 NW7       29.80F
BAD AXE        PTSUNNY   65  35  32 S8        29.76F
CARO           MOSUNNY   66  38  35 SW9       29.76F
DETROIT CITY   MOSUNNY   62  42  47 S10       29.81F
DETROIT        PTSUNNY   62  44  51 S13G32    29.82F
FLINT          PTSUNNY   67  36  31 W14       29.78F
GROSSE ILE     MOSUNNY   57  46  67 S10       29.81F
HILLSDALE      PTSUNNY   61  28  28 W7        29.82F
HOWELL         PTSUNNY   65  35  33 SW8G16    29.80F

CITY           SKY/WX    TMP DP  RH WIND       PRES   REMARKS
JACKSON        MOSUNNY   62  35  36 W10       29.80F
LAMBERTVILLE   PTSUNNY   64  38  38 W9        29.83F
LANSING        MOSUNNY   65  35  33 NW6       29.80F
LAPEER         FAIR      64  31  28 W7        29.78F
MASON            N/A    N/A N/A N/A MISG        N/A
MONROE         MOSUNNY   58  46  63 S14       29.82F
MT. CLEMENS    SUNNY     61  44  54 S13       29.80F
PONTIAC        PTSUNNY   62  32  32 NW7       29.78F
PORT HOPE        N/A     59  41  51 SE14      29.74F
PORT HURON     PTSUNNY   64  37  36 S9        29.79F
TRI CITIES     PTSUNNY   69  36  29 SW17      29.75F
MIDLAND        PTSUNNY   66  36  32 SW12      29.74S
TROY           CLOUDY    63  41  44 SW10G16   29.81F
SAGINAW HB     MOSUNNY   68  34  28 SW14G20   29.75F
$$
MIZ043>046-050>051-056>058-064>065-071>073-077>080-032200-
SOUTHWEST LOWER MICHIGAN

CITY           SKY/WX    TMP DP  RH WIND       PRES   REMARKS
BATTLE CREEK   PTSUNNY   65  35  33 W16       29.82F
BENTON HARBOR  MOSUNNY   63  35  35 SW13      29.83F
BIG RAPIDS     MOSUNNY   65  29  25 W17       29.74F
COLDWATER      PTSUNNY   64  37  36 W7        29.82F
FREMONT        FAIR      64  32  30 SW15      29.77F
HOLLAND        SUNNY     63  36  36 SW15      29.82F
GRAND RAPIDS   MOSUNNY   66  37  34 W15G21    29.80F
IONIA          PTSUNNY   64  33  30 W9        29.78F
KALAMAZOO      MOSUNNY   64  36  35 NW7       29.82F
LUDINGTON      CLOUDY    58  39  49 S18G25    29.75F
MARSHALL       CLOUDY    61  37  40 SW5       29.81F
MOUNT PLEASANT PTSUNNY   66  36  33 SW10G22   29.74F
MUSKEGON       MOSUNNY   59  35  40 SW17G25   29.80F
$$
MIZ016>042-032200-
NORTHERN LOWER MICHIGAN

CITY           SKY/WX    TMP DP  RH WIND       PRES   REMARKS
ALPENA         CLOUDY    67  33  28 S6        29.67F
BEAVER ISLAND  CLOUDY    56  37  48 SW15G22   29.66S
BELLAIRE       CLOUDY    66  31  27 SW14G21   29.69F
CADILLAC       MOSUNNY   63  32  31 W10       29.72F
CHARLEVOIX     CLOUDY    63  34  33 SW12      29.70F
FRANKFORT      CLOUDY    57  41  55 SW13G22   29.71F
GAYLORD        CLOUDY    65  28  24 W20       29.69F
HARBOR SPRINGS PTSUNNY   58  36  42 W5        29.67F
HOUGHTON LAKE  CLOUDY    63  33  32 SW10      29.71F
MANISTEE       CLOUDY    64  36  34 SW13G20   29.73F
OSCODA         CLOUDY    63  33  32 S16G22    29.71F
PELLSTON       CLOUDY    65  28  24 SW15G26   29.67F
ROGERS CITY    CLOUDY    62  32  32 NE5       29.68F
TRAVERSE CITY  CLOUDY    67  34  29 SW12      29.68F
$$
MIZ007>008-015-032200-
EASTERN UPPER MICHIGAN

CITY           SKY/WX    TMP DP  RH WIND       PRES   REMARKS
KINROSS          N/A     57  34  41 S7G17     29.65F
MACKINAC ISLAN CLOUDY    56  35  43 NW5       29.66S
NEWBERRY       CLOUDY    56  38  49 NW8       29.67R
S. S. MARIE    CLOUDY    61  32  33 S14       29.63F
MUNISING         N/A     49  46  90 W3        29.67F
$$
MIZ004>006-011>014-085-032200-
CENTRAL UPPER MICHIGAN

CITY           SKY/WX    TMP DP  RH WIND       PRES   REMARKS
MANISTIQUE     RAIN      51  47  84 N3        29.69R
ESCANABA       CLOUDY    55  46  71 W5        29.67R
SAWYER-GWINN   LGT RAIN  48  45  87 W8        29.66F
$$
MIZ001>003-009>011-084-032200-
WESTERN UPPER MICHIGAN

CITY           SKY/WX    TMP DP  RH WIND       PRES   REMARKS
IRON MOUNTAIN  LGT RAIN  53  44  71 NW10      29.68R
HOUGHTON       HVY RAIN  46  42  86 NW12      29.66R FOG
COPPER HARBOR    N/A     48  41  76 N13       29.65R
IRONWOOD         N/A     55  46  71 W10       29.64F
$$

ABBREVIATIONS USED IN REMARKS
   TC - TEMPERATURE IN CELSIUS
  WCI - WIND CHILL INDEX
   HX - HEAT INDEX
  VSB - VISIBILITY





USA.gov is the U.S. government's official web portal to all federal, state and local government web resources and services.